Regional Weather Roundup
Issued by NWS

Home | Current Version | Previous Version | Graphics & Text | Print | Product List | Glossary On
Versions: 1 2 3 4 5 6 7 8 9 10 11 12 13 14 15 16 17 18 19 20 21 22 23 24 25 26 27 28 29 30 31 32 33 34 35 36 37 38 39 40 41 42 43 44 45 46 47 48 49 50
000
ASUS43 KLMK 240810
RWRKY
KENTUCKY REGIONAL WEATHER ROUNDUP
NATIONAL WEATHER SERVICE LOUISVILLE KY
300 AM EST FRI NOV 24 2017

NOTE "FAIR" INDICATES FEW OR NO CLOUDS BELOW 12,000 FEET
WITH NO SIGNIFICANT WEATHER AND/OR OBSTRUCTIONS TO VISIBILITY.

KYZ001>023-026-027-061>063-070>075-240900-
WESTERN AND SOUTH CENTRAL KENTUCKY

CITY           SKY/WX    TMP DP  RH WIND       PRES   REMARKS
PADUCAH        CLOUDY    36  23  59 S3        29.98F
HENDERSON      CLOUDY    31  25  78 CALM      29.99F
OWENSBORO      CLEAR     34  25  69 S5        30.01S WCI  30
HOPKINSVILLE   CLOUDY    34  24  67 CALM      30.01S
BOWLING GREEN  CLOUDY    30  27  88 CALM      30.04S
GLASGOW        CLOUDY    28  28 100 CALM      30.03S
$$

KYZ024-025-028>034-038-045-046-053-240900-
NORTH CENTRAL KENTUCKY

CITY           SKY/WX    TMP DP  RH WIND       PRES   REMARKS
LOUISVILLE/SDF CLOUDY    33  26  75 SE5       30.01F WCI  29
LOUISVILLE/LOU CLOUDY    32  29  88 CALM      30.02S
FORT KNOX      CLOUDY    33  23  66 CALM      29.99F
$$

KYZ035>037-039>044-047>052-055>060-089>105-240900-
NORTHEAST KENTUCKY

CITY           SKY/WX    TMP DP  RH WIND       PRES   REMARKS
LEXINGTON      CLOUDY    30  23  75 S3        30.02S
COVINGTON      CLOUDY    28  26  92 S6        30.00S WCI  22
FRANKFORT      CLOUDY    28  22  78 CALM      30.01F
$$

KYZ054-064>069-076>088-106>120-240900-
SOUTHEAST KENTUCKY

CITY           SKY/WX    TMP DP  RH WIND       PRES   REMARKS
JACKSON        CLEAR     34  21  59 S3        30.00F
LONDON         CLOUDY    29  23  78 CALM      30.02S
SOMERSET       CLEAR     28  25  86 CALM      30.05S
MIDDLESBORO    CLEAR     28  27  96 CALM      30.07S
MONTICELLO     SUNNY     24  22  91 W5        30.05S WCI  18
$$





USA.gov is the U.S. government's official web portal to all federal, state and local government web resources and services.